Year,Month,Day,Hour,Minute,Value (Times are PST for temperature in C)
2014,07,15,00,00,22.00
2014,07,15,00,01,21.90
2014,07,15,00,02,21.70
2014,07,15,00,03,21.60
2014,07,15,00,04,21.50
2014,07,15,00,05,21.40
2014,07,15,00,06,21.30
2014,07,15,00,07,21.30
2014,07,15,00,08,21.20
2014,07,15,00,09,21.10
2014,07,15,00,10,21.00
2014,07,15,00,11,21.00
2014,07,15,00,12,20.90
2014,07,15,00,13,20.80
2014,07,15,00,14,20.80
2014,07,15,00,15,20.70
2014,07,15,00,16,20.70
2014,07,15,00,17,20.70
2014,07,15,00,18,20.60
2014,07,15,00,19,20.60
2014,07,15,00,20,20.60
2014,07,15,00,21,20.60
2014,07,15,00,22,20.60
2014,07,15,00,23,20.60
2014,07,15,00,24,20.60
2014,07,15,00,25,20.70
2014,07,15,00,26,20.70
2014,07,15,00,27,20.70
2014,07,15,00,28,20.70
2014,07,15,00,29,20.70
2014,07,15,00,30,20.70
2014,07,15,00,31,20.70
2014,07,15,00,32,20.60
2014,07,15,00,33,20.60
2014,07,15,00,34,20.60
2014,07,15,00,35,20.50
2014,07,15,00,36,20.50
2014,07,15,00,37,20.40
2014,07,15,00,38,20.40
2014,07,15,00,39,20.40
2014,07,15,00,40,20.40
2014,07,15,00,41,20.30
2014,07,15,00,42,20.30
2014,07,15,00,43,20.30
2014,07,15,00,44,20.30
2014,07,15,00,45,20.30
2014,07,15,00,46,20.30
2014,07,15,00,47,20.30
2014,07,15,00,48,20.30
2014,07,15,00,49,20.30
2014,07,15,00,50,20.40
2014,07,15,00,51,20.50
2014,07,15,00,52,20.50
2014,07,15,00,53,20.60
2014,07,15,00,54,20.60
2014,07,15,00,55,20.60
2014,07,15,00,56,20.60
2014,07,15,00,57,20.60
2014,07,15,00,58,20.50
2014,07,15,00,59,20.50
2014,07,15,01,00,20.40
2014,07,15,01,01,20.40
2014,07,15,01,02,20.40
2014,07,15,01,03,20.40
2014,07,15,01,04,20.30
2014,07,15,01,05,20.30
2014,07,15,01,06,20.20
2014,07,15,01,07,20.10
2014,07,15,01,08,20.10
2014,07,15,01,09,20.10
2014,07,15,01,10,20.10
2014,07,15,01,11,20.10
2014,07,15,01,12,20.10
2014,07,15,01,13,20.10
2014,07,15,01,14,20.20
2014,07,15,01,15,20.20
2014,07,15,01,16,20.20
2014,07,15,01,17,20.20
2014,07,15,01,18,20.20
2014,07,15,01,19,20.30
2014,07,15,01,20,20.30
2014,07,15,01,21,20.30
2014,07,15,01,22,20.30
2014,07,15,01,23,20.30
2014,07,15,01,24,20.30
2014,07,15,01,25,20.30
2014,07,15,01,26,20.30
2014,07,15,01,27,20.30
2014,07,15,01,28,20.30
2014,07,15,01,29,20.30
2014,07,15,01,30,20.20
2014,07,15,01,31,20.20
2014,07,15,01,32,20.20
2014,07,15,01,33,20.10
2014,07,15,01,34,20.10
2014,07,15,01,35,20.00
2014,07,15,01,36,20.00
2014,07,15,01,37,20.00
2014,07,15,01,38,19.90
2014,07,15,01,39,19.90
2014,07,15,01,40,19.90
2014,07,15,01,41,19.80
2014,07,15,01,42,19.80
2014,07,15,01,43,19.80
2014,07,15,01,44,19.70
2014,07,15,01,45,19.70
2014,07,15,01,46,19.70
2014,07,15,01,47,19.60
2014,07,15,01,48,19.60
2014,07,15,01,49,19.60
2014,07,15,01,50,19.50
2014,07,15,01,51,19.50
2014,07,15,01,52,19.50
2014,07,15,01,53,19.50
2014,07,15,01,54,19.40
2014,07,15,01,55,19.40
2014,07,15,01,56,19.40
2014,07,15,01,57,19.30
2014,07,15,01,58,19.30
2014,07,15,01,59,19.30
2014,07,15,02,00,19.30
2014,07,15,02,01,19.20
2014,07,15,02,02,19.20
2014,07,15,02,03,19.20
2014,07,15,02,04,19.20
2014,07,15,02,05,19.10
2014,07,15,02,06,19.10
2014,07,15,02,07,19.10
2014,07,15,02,08,19.10
2014,07,15,02,09,19.00
2014,07,15,02,10,19.00
2014,07,15,02,11,19.00
2014,07,15,02,12,19.00
2014,07,15,02,13,19.00
2014,07,15,02,14,18.90
2014,07,15,02,15,18.90
2014,07,15,02,16,18.90
2014,07,15,02,17,18.90
2014,07,15,02,18,18.80
2014,07,15,02,19,18.80
2014,07,15,02,20,18.80
2014,07,15,02,21,18.80
2014,07,15,02,22,18.80
2014,07,15,02,23,18.70
2014,07,15,02,24,18.70
2014,07,15,02,25,18.70
2014,07,15,02,26,18.60
2014,07,15,02,27,18.60
2014,07,15,02,28,18.60
2014,07,15,02,29,18.50
2014,07,15,02,30,18.50
2014,07,15,02,31,18.40
2014,07,15,02,32,18.40
2014,07,15,02,33,18.40
2014,07,15,02,34,18.40
2014,07,15,02,35,18.40
2014,07,15,02,36,18.40
2014,07,15,02,37,18.40
2014,07,15,02,38,18.50
2014,07,15,02,39,18.50
2014,07,15,02,40,18.50
2014,07,15,02,41,18.50
2014,07,15,02,42,18.40
2014,07,15,02,43,18.50
2014,07,15,02,44,18.40
2014,07,15,02,45,18.40
2014,07,15,02,46,18.40
2014,07,15,02,47,18.40
2014,07,15,02,48,18.40
2014,07,15,02,49,18.40
2014,07,15,02,50,18.40
2014,07,15,02,51,18.40
2014,07,15,02,52,18.30
2014,07,15,02,53,18.30
2014,07,15,02,54,18.30
2014,07,15,02,55,18.30
2014,07,15,02,56,18.30
2014,07,15,02,57,18.30
2014,07,15,02,58,18.20
2014,07,15,02,59,18.20
2014,07,15,03,00,18.20
2014,07,15,03,01,18.10
2014,07,15,03,02,18.10
2014,07,15,03,03,18.10
2014,07,15,03,04,18.10
2014,07,15,03,05,18.10
2014,07,15,03,06,18.10
2014,07,15,03,07,18.00
2014,07,15,03,08,18.00
2014,07,15,03,09,18.00
2014,07,15,03,10,18.00
2014,07,15,03,11,18.00
2014,07,15,03,12,17.90
2014,07,15,03,13,17.90
2014,07,15,03,14,17.90
2014,07,15,03,15,17.90
2014,07,15,03,16,17.90
2014,07,15,03,17,17.90
2014,07,15,03,18,17.90
2014,07,15,03,19,17.90
2014,07,15,03,20,18.00
2014,07,15,03,21,18.00
2014,07,15,03,22,18.00
2014,07,15,03,23,18.10
2014,07,15,03,24,18.10
2014,07,15,03,25,18.00
2014,07,15,03,26,18.00
2014,07,15,03,27,18.00
2014,07,15,03,28,18.00
2014,07,15,03,29,17.90
2014,07,15,03,30,17.90
2014,07,15,03,31,17.90
2014,07,15,03,32,17.90
2014,07,15,03,33,17.90
2014,07,15,03,34,17.90
2014,07,15,03,35,17.90
2014,07,15,03,36,17.90
2014,07,15,03,37,17.90
2014,07,15,03,38,17.90
2014,07,15,03,39,17.90
2014,07,15,03,40,17.90
2014,07,15,03,41,17.80
2014,07,15,03,42,17.80
2014,07,15,03,43,17.80
2014,07,15,03,44,17.80
2014,07,15,03,45,17.70
2014,07,15,03,46,17.70
2014,07,15,03,47,17.70
2014,07,15,03,48,17.60
2014,07,15,03,49,17.60
2014,07,15,03,50,17.60
2014,07,15,03,51,17.50
2014,07,15,03,52,17.50
2014,07,15,03,53,17.50
2014,07,15,03,54,17.40
2014,07,15,03,55,17.40
2014,07,15,03,56,17.40
2014,07,15,03,57,17.30
2014,07,15,03,58,17.30
2014,07,15,03,59,17.30
2014,07,15,04,00,17.30
2014,07,15,04,01,17.20
2014,07,15,04,02,17.20
2014,07,15,04,03,17.20
2014,07,15,04,04,17.20
2014,07,15,04,05,17.20
2014,07,15,04,06,17.20
2014,07,15,04,07,17.20
2014,07,15,04,08,17.20
2014,07,15,04,09,17.10
2014,07,15,04,10,17.10
2014,07,15,04,11,17.10
2014,07,15,04,12,17.10
2014,07,15,04,13,17.00
2014,07,15,04,14,17.00
2014,07,15,04,15,17.00
2014,07,15,04,16,16.90
2014,07,15,04,17,16.90
2014,07,15,04,18,16.90
2014,07,15,04,19,16.90
2014,07,15,04,20,16.90
2014,07,15,04,21,16.90
2014,07,15,04,22,16.80
2014,07,15,04,23,16.80
2014,07,15,04,24,16.80
2014,07,15,04,25,16.80
2014,07,15,04,26,16.70
2014,07,15,04,27,16.70
2014,07,15,04,28,16.70
2014,07,15,04,29,16.70
2014,07,15,04,30,16.70
2014,07,15,04,31,16.60
2014,07,15,04,32,16.60
2014,07,15,04,33,16.60
2014,07,15,04,34,16.60
2014,07,15,04,35,16.60
2014,07,15,04,36,16.60
2014,07,15,04,37,16.60
2014,07,15,04,38,16.60
2014,07,15,04,39,16.60
2014,07,15,04,40,16.60
2014,07,15,04,41,16.50
2014,07,15,04,42,16.50
2014,07,15,04,43,16.40
2014,07,15,04,44,16.40
2014,07,15,04,45,16.30
2014,07,15,04,46,16.20
2014,07,15,04,47,16.20
2014,07,15,04,48,16.10
2014,07,15,04,49,16.10
2014,07,15,04,50,16.00
2014,07,15,04,51,16.00
2014,07,15,04,52,15.90
2014,07,15,04,53,15.90
2014,07,15,04,54,15.80
2014,07,15,04,55,15.80
2014,07,15,04,56,15.80
2014,07,15,04,57,15.70
2014,07,15,04,58,15.70
2014,07,15,04,59,15.70
2014,07,15,05,00,15.70
2014,07,15,05,01,15.70
2014,07,15,05,02,15.70
2014,07,15,05,03,15.70
2014,07,15,05,04,15.70
2014,07,15,05,05,15.70
2014,07,15,05,06,15.70
2014,07,15,05,07,15.70
2014,07,15,05,08,15.60
2014,07,15,05,09,15.60
2014,07,15,05,10,15.60
2014,07,15,05,11,15.60
2014,07,15,05,12,15.60
2014,07,15,05,13,15.60
2014,07,15,05,14,15.60
2014,07,15,05,15,15.60
2014,07,15,05,16,15.60
2014,07,15,05,17,15.60
2014,07,15,05,18,15.70
2014,07,15,05,19,15.70
2014,07,15,05,20,15.70
2014,07,15,05,21,15.80
2014,07,15,05,22,15.80
2014,07,15,05,23,15.80
2014,07,15,05,24,15.80
2014,07,15,05,25,15.80
2014,07,15,05,26,15.80
2014,07,15,05,27,15.80
2014,07,15,05,28,15.80
2014,07,15,05,29,15.80
2014,07,15,05,30,15.90
2014,07,15,05,31,15.90
2014,07,15,05,32,16.00
2014,07,15,05,33,16.00
2014,07,15,05,34,16.00
2014,07,15,05,35,16.10
2014,07,15,05,36,16.10
2014,07,15,05,37,16.10
2014,07,15,05,38,16.10
2014,07,15,05,39,16.20
2014,07,15,05,40,16.20
2014,07,15,05,41,16.20
2014,07,15,05,42,16.30
2014,07,15,05,43,16.30
2014,07,15,05,44,16.30
2014,07,15,05,45,16.30
2014,07,15,05,46,16.30
2014,07,15,05,47,16.30
2014,07,15,05,48,16.30
2014,07,15,05,49,16.30
2014,07,15,05,50,16.30
2014,07,15,05,51,16.30
2014,07,15,05,52,16.30
2014,07,15,05,53,16.30
2014,07,15,05,54,16.30
2014,07,15,05,55,16.30
2014,07,15,05,56,16.20
2014,07,15,05,57,16.20
2014,07,15,05,58,16.20
2014,07,15,05,59,16.10
2014,07,15,06,00,16.10
2014,07,15,06,01,16.10
2014,07,15,06,02,16.10
2014,07,15,06,03,16.10
2014,07,15,06,04,16.10
2014,07,15,06,05,16.10
2014,07,15,06,06,16.10
2014,07,15,06,07,16.10
2014,07,15,06,08,16.10
2014,07,15,06,09,16.10
2014,07,15,06,10,16.10
2014,07,15,06,11,16.10
2014,07,15,06,12,16.10
2014,07,15,06,13,16.10
2014,07,15,06,14,16.10
2014,07,15,06,15,16.10
2014,07,15,06,16,16.10
2014,07,15,06,17,16.10
2014,07,15,06,18,16.10
2014,07,15,06,19,16.10
2014,07,15,06,20,16.10
2014,07,15,06,21,16.10
2014,07,15,06,22,16.10
2014,07,15,06,23,16.10
2014,07,15,06,24,16.10
2014,07,15,06,25,16.10
2014,07,15,06,26,16.20
2014,07,15,06,27,16.20
2014,07,15,06,28,16.20
2014,07,15,06,29,16.20
2014,07,15,06,30,16.20
2014,07,15,06,31,16.20
2014,07,15,06,32,16.20
2014,07,15,06,33,16.20
2014,07,15,06,34,16.20
2014,07,15,06,35,16.20
2014,07,15,06,36,16.20
2014,07,15,06,37,16.30
2014,07,15,06,38,16.30
2014,07,15,06,39,16.30
2014,07,15,06,40,16.30
2014,07,15,06,41,16.30
2014,07,15,06,42,16.30
2014,07,15,06,43,16.40
2014,07,15,06,44,16.40
2014,07,15,06,45,16.40
2014,07,15,06,46,16.40
2014,07,15,06,47,16.40
2014,07,15,06,48,16.40
2014,07,15,06,49,16.40
2014,07,15,06,50,16.40
2014,07,15,06,51,16.50
2014,07,15,06,52,16.50
2014,07,15,06,53,16.60
2014,07,15,06,54,16.60
2014,07,15,06,55,16.70
2014,07,15,06,56,16.70
2014,07,15,06,57,16.70
2014,07,15,06,58,16.70
2014,07,15,06,59,16.80
2014,07,15,07,00,16.80
2014,07,15,07,01,16.80
2014,07,15,07,02,16.80
2014,07,15,07,03,16.80
2014,07,15,07,04,16.80
2014,07,15,07,05,16.80
2014,07,15,07,06,16.80
2014,07,15,07,07,16.90
2014,07,15,07,08,16.90
2014,07,15,07,09,16.90
2014,07,15,07,10,16.90
2014,07,15,07,11,17.00
2014,07,15,07,12,17.10
2014,07,15,07,13,17.20
2014,07,15,07,14,17.30
2014,07,15,07,15,17.40
2014,07,15,07,16,17.50
2014,07,15,07,17,17.60
2014,07,15,07,18,17.70
2014,07,15,07,19,17.80
2014,07,15,07,20,18.00
2014,07,15,07,21,18.10
2014,07,15,07,22,18.30
2014,07,15,07,23,18.40
2014,07,15,07,24,18.60
2014,07,15,07,25,18.70
2014,07,15,07,26,18.90
2014,07,15,07,27,19.00
2014,07,15,07,28,19.20
2014,07,15,07,29,19.30
2014,07,15,07,30,19.30
2014,07,15,07,31,19.40
2014,07,15,07,32,19.50
2014,07,15,07,33,19.50
2014,07,15,07,34,19.50
2014,07,15,07,35,19.40
2014,07,15,07,36,19.40
2014,07,15,07,37,19.40
2014,07,15,07,38,19.40
2014,07,15,07,39,19.30
2014,07,15,07,40,19.30
2014,07,15,07,41,19.30
2014,07,15,07,42,19.30
2014,07,15,07,43,19.30
2014,07,15,07,44,19.40
2014,07,15,07,45,19.40
2014,07,15,07,46,19.50
2014,07,15,07,47,19.50
2014,07,15,07,48,19.60
2014,07,15,07,49,19.60
2014,07,15,07,50,19.60
2014,07,15,07,51,19.60
2014,07,15,07,52,19.70
2014,07,15,07,53,19.70
2014,07,15,07,54,19.70
2014,07,15,07,55,19.80
2014,07,15,07,56,19.80
2014,07,15,07,57,19.90
2014,07,15,07,58,19.90
2014,07,15,07,59,20.00
2014,07,15,08,00,20.00
2014,07,15,08,01,20.10
2014,07,15,08,02,20.20
2014,07,15,08,03,20.30
2014,07,15,08,04,20.40
2014,07,15,08,05,20.40
2014,07,15,08,06,20.50
2014,07,15,08,07,20.60
2014,07,15,08,08,20.60
2014,07,15,08,09,20.60
2014,07,15,08,10,20.60
2014,07,15,08,11,20.60
2014,07,15,08,12,20.70
2014,07,15,08,13,20.80
2014,07,15,08,14,20.80
2014,07,15,08,15,20.90
2014,07,15,08,16,21.00
2014,07,15,08,17,21.10
2014,07,15,08,18,21.20
2014,07,15,08,19,21.30
2014,07,15,08,20,21.30
2014,07,15,08,21,21.40
2014,07,15,08,22,21.40
2014,07,15,08,23,21.40
2014,07,15,08,24,21.40
2014,07,15,08,25,21.50
2014,07,15,08,26,21.50
2014,07,15,08,27,21.60
2014,07,15,08,28,21.60
2014,07,15,08,29,21.60
2014,07,15,08,30,21.60
2014,07,15,08,31,21.70
2014,07,15,08,32,21.70
2014,07,15,08,33,21.80
2014,07,15,08,34,21.80
2014,07,15,08,35,21.80
2014,07,15,08,36,21.80
2014,07,15,08,37,21.90
2014,07,15,08,38,22.00
2014,07,15,08,39,22.10
2014,07,15,08,40,22.20
2014,07,15,08,41,22.20
2014,07,15,08,42,22.30
2014,07,15,08,43,22.30
2014,07,15,08,44,22.30
2014,07,15,08,45,22.40
2014,07,15,08,46,22.40
2014,07,15,08,47,22.50
2014,07,15,08,48,22.60
2014,07,15,08,49,22.60
2014,07,15,08,50,22.60
2014,07,15,08,51,22.40
2014,07,15,08,52,22.30
2014,07,15,08,53,22.20
2014,07,15,08,54,22.00
2014,07,15,08,55,21.90
2014,07,15,08,56,21.80
2014,07,15,08,57,21.70
2014,07,15,08,58,21.60
2014,07,15,08,59,21.50
2014,07,15,09,00,21.50
2014,07,15,09,01,21.40
2014,07,15,09,02,21.50
2014,07,15,09,03,21.60
2014,07,15,09,04,21.60
2014,07,15,09,05,21.70
2014,07,15,09,06,21.70
2014,07,15,09,07,21.70
2014,07,15,09,08,21.50
2014,07,15,09,09,21.50
2014,07,15,09,10,21.40
2014,07,15,09,11,21.40
2014,07,15,09,12,21.50
2014,07,15,09,13,21.50
2014,07,15,09,14,21.60
2014,07,15,09,15,21.70
2014,07,15,09,16,21.70
2014,07,15,09,17,21.70
2014,07,15,09,18,21.70
2014,07,15,09,19,21.70
2014,07,15,09,20,21.70
2014,07,15,09,21,21.60
2014,07,15,09,22,21.60
2014,07,15,09,23,21.50
2014,07,15,09,24,21.50
2014,07,15,09,25,21.50
2014,07,15,09,26,21.50
2014,07,15,09,27,21.50
2014,07,15,09,28,21.50
2014,07,15,09,29,21.50
2014,07,15,09,30,21.60
2014,07,15,09,31,21.60
2014,07,15,09,32,21.60
2014,07,15,09,33,21.50
2014,07,15,09,34,21.50
2014,07,15,09,35,21.40
2014,07,15,09,36,21.50
2014,07,15,09,37,21.50
2014,07,15,09,38,21.60
2014,07,15,09,39,21.60
2014,07,15,09,40,21.60
2014,07,15,09,41,21.60
2014,07,15,09,42,21.60
2014,07,15,09,43,21.60
2014,07,15,09,44,21.80
2014,07,15,09,45,21.90
2014,07,15,09,46,22.10
2014,07,15,09,47,22.20
2014,07,15,09,48,22.30
2014,07,15,09,49,22.40
2014,07,15,09,50,22.50
2014,07,15,09,51,22.60
2014,07,15,09,52,22.70
2014,07,15,09,53,22.80
2014,07,15,09,54,22.90
2014,07,15,09,55,22.90
2014,07,15,09,56,22.90
2014,07,15,09,57,22.90
2014,07,15,09,58,22.90
2014,07,15,09,59,23.00
2014,07,15,10,00,23.00
2014,07,15,10,01,23.10
2014,07,15,10,02,23.10
2014,07,15,10,03,23.10
2014,07,15,10,04,23.10
2014,07,15,10,05,23.20
2014,07,15,10,06,23.20
2014,07,15,10,07,23.30
2014,07,15,10,08,23.40
2014,07,15,10,09,23.60
2014,07,15,10,10,23.70
2014,07,15,10,11,23.80
2014,07,15,10,12,24.00
2014,07,15,10,13,24.10
2014,07,15,10,14,24.20
2014,07,15,10,15,24.20
2014,07,15,10,16,24.20
2014,07,15,10,17,24.10
2014,07,15,10,18,24.00
2014,07,15,10,19,23.90
2014,07,15,10,20,23.90
2014,07,15,10,21,24.00
2014,07,15,10,22,24.10
2014,07,15,10,23,24.10
2014,07,15,10,24,24.10
2014,07,15,10,25,24.00
2014,07,15,10,26,24.00
2014,07,15,10,27,24.00
2014,07,15,10,28,24.00
2014,07,15,10,29,24.10
2014,07,15,10,30,24.10
2014,07,15,10,31,24.20
2014,07,15,10,32,24.20
2014,07,15,10,33,24.30
2014,07,15,10,34,24.40
2014,07,15,10,35,24.40
2014,07,15,10,36,24.40
2014,07,15,10,37,24.40
2014,07,15,10,38,24.30
2014,07,15,10,39,24.30
2014,07,15,10,40,24.20
2014,07,15,10,41,24.10
2014,07,15,10,42,23.90
2014,07,15,10,43,23.80
2014,07,15,10,44,23.80
2014,07,15,10,45,23.70
2014,07,15,10,46,23.70
2014,07,15,10,47,23.70
2014,07,15,10,48,23.70
2014,07,15,10,49,23.60
2014,07,15,10,50,23.60
2014,07,15,10,51,23.60
2014,07,15,10,52,23.60
2014,07,15,10,53,23.60
2014,07,15,10,54,23.60
2014,07,15,10,55,23.70
2014,07,15,10,56,23.70
2014,07,15,10,57,23.80
2014,07,15,10,58,23.80
2014,07,15,10,59,23.90
2014,07,15,11,00,23.80
2014,07,15,11,01,23.70
2014,07,15,11,02,23.60
2014,07,15,11,03,23.50
2014,07,15,11,04,23.40
2014,07,15,11,05,23.40
2014,07,15,11,06,23.40
2014,07,15,11,07,23.40
2014,07,15,11,08,23.50
2014,07,15,11,09,23.60
2014,07,15,11,10,23.70
2014,07,15,11,11,23.70
2014,07,15,11,12,23.80
2014,07,15,11,13,23.90
2014,07,15,11,14,24.00
2014,07,15,11,15,24.00
2014,07,15,11,16,24.10
2014,07,15,11,17,24.20
2014,07,15,11,18,24.30
2014,07,15,11,19,24.30
2014,07,15,11,20,24.50
2014,07,15,11,21,24.60
2014,07,15,11,22,24.60
2014,07,15,11,23,24.50
2014,07,15,11,24,24.50
2014,07,15,11,25,24.40
2014,07,15,11,26,24.30
2014,07,15,11,27,24.20
2014,07,15,11,28,24.20
2014,07,15,11,29,24.20
2014,07,15,11,30,24.20
2014,07,15,11,31,24.20
2014,07,15,11,32,24.20
2014,07,15,11,33,24.20
2014,07,15,11,34,24.20
2014,07,15,11,35,24.20
2014,07,15,11,36,24.20
2014,07,15,11,37,24.10
2014,07,15,11,38,24.10
2014,07,15,11,39,24.20
2014,07,15,11,40,24.20
2014,07,15,11,41,24.20
2014,07,15,11,42,24.30
2014,07,15,11,43,24.40
2014,07,15,11,44,24.50
2014,07,15,11,45,24.60
2014,07,15,11,46,24.80
2014,07,15,11,47,25.10
2014,07,15,11,48,25.30
2014,07,15,11,49,25.40
2014,07,15,11,50,25.40
2014,07,15,11,51,25.40
2014,07,15,11,52,25.30
2014,07,15,11,53,25.30
2014,07,15,11,54,25.20
2014,07,15,11,55,25.10
2014,07,15,11,56,25.10
2014,07,15,11,57,25.10
2014,07,15,11,58,25.10
2014,07,15,11,59,25.10
2014,07,15,12,00,25.10
2014,07,15,12,01,25.10
2014,07,15,12,02,25.10
2014,07,15,12,03,25.10
2014,07,15,12,04,25.10
2014,07,15,12,05,25.10
2014,07,15,12,06,25.10
2014,07,15,12,07,25.10
2014,07,15,12,08,25.10
2014,07,15,12,09,25.00
2014,07,15,12,10,25.00
2014,07,15,12,11,25.00
2014,07,15,12,12,24.90
2014,07,15,12,13,24.90
2014,07,15,12,14,24.90
2014,07,15,12,15,25.00
2014,07,15,12,16,25.10
2014,07,15,12,17,25.10
2014,07,15,12,18,25.20
2014,07,15,12,19,25.30
2014,07,15,12,20,25.40
2014,07,15,12,21,25.40
2014,07,15,12,22,25.50
2014,07,15,12,23,25.60
2014,07,15,12,24,25.50
2014,07,15,12,25,25.40
2014,07,15,12,26,25.30
2014,07,15,12,27,25.20
2014,07,15,12,28,25.10
2014,07,15,12,29,25.00
2014,07,15,12,30,24.90
2014,07,15,12,31,25.00
2014,07,15,12,32,25.10
2014,07,15,12,33,25.00
2014,07,15,12,34,25.00
2014,07,15,12,35,25.00
2014,07,15,12,36,25.00
2014,07,15,12,37,25.00
2014,07,15,12,38,25.00
2014,07,15,12,39,25.00
2014,07,15,12,40,25.10
2014,07,15,12,41,25.10
2014,07,15,12,42,25.10
2014,07,15,12,43,25.10
2014,07,15,12,44,25.20
2014,07,15,12,45,25.30
2014,07,15,12,46,25.30
2014,07,15,12,47,25.30
2014,07,15,12,48,25.30
2014,07,15,12,49,25.30
2014,07,15,12,50,25.30
2014,07,15,12,51,25.40
2014,07,15,12,52,25.50
2014,07,15,12,53,25.50
2014,07,15,12,54,25.60
2014,07,15,12,55,25.60
2014,07,15,12,56,25.60
2014,07,15,12,57,25.60
2014,07,15,12,58,25.60
2014,07,15,12,59,25.60
2014,07,15,13,00,25.60
2014,07,15,13,01,25.50
2014,07,15,13,02,25.50
2014,07,15,13,03,25.50
2014,07,15,13,04,25.50
2014,07,15,13,05,25.50
2014,07,15,13,06,25.50
2014,07,15,13,07,25.50
2014,07,15,13,08,25.50
2014,07,15,13,09,25.60
2014,07,15,13,10,25.60
2014,07,15,13,11,25.60
2014,07,15,13,12,25.70
2014,07,15,13,13,25.70
2014,07,15,13,14,25.80
2014,07,15,13,15,25.80
2014,07,15,13,16,25.80
2014,07,15,13,17,25.80
2014,07,15,13,18,25.90
2014,07,15,13,19,26.00
2014,07,15,13,20,26.10
2014,07,15,13,21,26.20
2014,07,15,13,22,26.20
2014,07,15,13,23,26.20
2014,07,15,13,24,26.20
2014,07,15,13,25,26.20
2014,07,15,13,26,26.30
2014,07,15,13,27,26.30
2014,07,15,13,28,26.30
2014,07,15,13,29,26.30
2014,07,15,13,30,26.20
2014,07,15,13,31,26.10
2014,07,15,13,32,26.10
2014,07,15,13,33,26.00
2014,07,15,13,34,26.00
2014,07,15,13,35,25.90
2014,07,15,13,36,25.80
2014,07,15,13,37,25.80
2014,07,15,13,38,25.90
2014,07,15,13,39,26.00
2014,07,15,13,40,26.10
2014,07,15,13,41,26.30
2014,07,15,13,42,26.40
2014,07,15,13,43,26.50
2014,07,15,13,44,26.60
2014,07,15,13,45,26.70
2014,07,15,13,46,26.80
2014,07,15,13,47,26.80
2014,07,15,13,48,26.70
2014,07,15,13,49,26.60
2014,07,15,13,50,26.50
2014,07,15,13,51,26.40
2014,07,15,13,52,26.40
2014,07,15,13,53,26.40
2014,07,15,13,54,26.50
2014,07,15,13,55,26.50
2014,07,15,13,56,26.60
2014,07,15,13,57,26.50
2014,07,15,13,58,26.60
2014,07,15,13,59,26.60
2014,07,15,14,00,26.60
2014,07,15,14,01,26.60
2014,07,15,14,02,26.70
2014,07,15,14,03,26.70
2014,07,15,14,04,26.60
2014,07,15,14,05,26.60
2014,07,15,14,06,26.60
2014,07,15,14,07,26.60
2014,07,15,14,08,26.70
2014,07,15,14,09,26.70
2014,07,15,14,10,26.70
2014,07,15,14,11,26.70
2014,07,15,14,12,26.70
2014,07,15,14,13,26.70
2014,07,15,14,14,26.80
2014,07,15,14,15,26.80
2014,07,15,14,16,26.70
2014,07,15,14,17,26.60
2014,07,15,14,18,26.60
2014,07,15,14,19,26.60
2014,07,15,14,20,26.60
2014,07,15,14,21,26.70
2014,07,15,14,22,26.70
2014,07,15,14,23,26.60
2014,07,15,14,24,26.60
2014,07,15,14,25,26.70
2014,07,15,14,26,26.80
2014,07,15,14,27,26.80
2014,07,15,14,28,26.80
2014,07,15,14,29,26.90
2014,07,15,14,30,27.00
2014,07,15,14,31,27.10
2014,07,15,14,32,27.20
2014,07,15,14,33,27.20
2014,07,15,14,34,27.20
2014,07,15,14,35,27.20
2014,07,15,14,36,27.20
2014,07,15,14,37,27.30
2014,07,15,14,38,27.40
2014,07,15,14,39,27.40
2014,07,15,14,40,27.40
2014,07,15,14,41,27.40
2014,07,15,14,42,27.40
2014,07,15,14,43,27.30
2014,07,15,14,44,27.30
2014,07,15,14,45,27.30
2014,07,15,14,46,27.30
2014,07,15,14,47,27.40
2014,07,15,14,48,27.40
2014,07,15,14,49,27.40
2014,07,15,14,50,27.40
2014,07,15,14,51,27.40
2014,07,15,14,52,27.40
2014,07,15,14,53,27.40
2014,07,15,14,54,27.40
2014,07,15,14,55,27.40
2014,07,15,14,56,27.40
2014,07,15,14,57,27.40
2014,07,15,14,58,27.40
2014,07,15,14,59,27.40
2014,07,15,15,00,27.50
2014,07,15,15,01,27.50
2014,07,15,15,02,27.60
2014,07,15,15,03,27.70
2014,07,15,15,04,27.70
2014,07,15,15,05,27.70
2014,07,15,15,06,27.70
2014,07,15,15,07,27.70
2014,07,15,15,08,27.70
2014,07,15,15,09,27.70
2014,07,15,15,10,27.70
2014,07,15,15,11,27.70
2014,07,15,15,12,27.70
2014,07,15,15,13,27.60
2014,07,15,15,14,27.60
2014,07,15,15,15,27.60
2014,07,15,15,16,27.70
2014,07,15,15,17,27.70
2014,07,15,15,18,27.70
2014,07,15,15,19,27.70
2014,07,15,15,20,27.70
2014,07,15,15,21,27.80
2014,07,15,15,22,27.80
2014,07,15,15,23,27.80
2014,07,15,15,24,27.80
2014,07,15,15,25,27.90
2014,07,15,15,26,28.00
2014,07,15,15,27,28.00
2014,07,15,15,28,28.10
2014,07,15,15,29,28.10
2014,07,15,15,30,28.20
2014,07,15,15,31,28.20
2014,07,15,15,32,28.30
2014,07,15,15,33,28.30
2014,07,15,15,34,28.30
2014,07,15,15,35,28.30
2014,07,15,15,36,28.30
2014,07,15,15,37,28.20
2014,07,15,15,38,28.20
2014,07,15,15,39,28.20
2014,07,15,15,40,28.20
2014,07,15,15,41,28.20
2014,07,15,15,42,28.20
2014,07,15,15,43,28.20
2014,07,15,15,44,28.20
2014,07,15,15,45,28.30
2014,07,15,15,46,28.30
2014,07,15,15,47,28.30
2014,07,15,15,48,28.30
2014,07,15,15,49,28.40
2014,07,15,15,50,28.40
2014,07,15,15,51,28.40
2014,07,15,15,52,28.40
2014,07,15,15,53,28.40
2014,07,15,15,54,28.40
2014,07,15,15,55,28.40
2014,07,15,15,56,28.40
2014,07,15,15,57,28.40
2014,07,15,15,58,28.40
2014,07,15,15,59,28.40
2014,07,15,16,00,28.40
2014,07,15,16,01,28.40
2014,07,15,16,02,28.40
2014,07,15,16,03,28.50
2014,07,15,16,04,28.50
2014,07,15,16,05,28.60
2014,07,15,16,06,28.60
2014,07,15,16,07,28.50
2014,07,15,16,08,28.50
2014,07,15,16,09,28.50
2014,07,15,16,10,28.50
2014,07,15,16,11,28.50
2014,07,15,16,12,28.50
2014,07,15,16,13,28.60
2014,07,15,16,14,28.60
2014,07,15,16,15,28.60
2014,07,15,16,16,28.60
2014,07,15,16,17,28.60
2014,07,15,16,18,28.60
2014,07,15,16,19,28.60
2014,07,15,16,20,28.60
2014,07,15,16,21,28.60
2014,07,15,16,22,28.60
2014,07,15,16,23,28.60
2014,07,15,16,24,28.60
2014,07,15,16,25,28.70
2014,07,15,16,26,28.70
2014,07,15,16,27,28.80
2014,07,15,16,28,28.80
2014,07,15,16,29,28.80
2014,07,15,16,30,28.80
2014,07,15,16,31,28.80
2014,07,15,16,32,28.70
2014,07,15,16,33,28.60
2014,07,15,16,34,28.60
2014,07,15,16,35,28.50
2014,07,15,16,36,28.50
2014,07,15,16,37,28.60
2014,07,15,16,38,28.60
2014,07,15,16,39,28.60
2014,07,15,16,40,28.60
2014,07,15,16,41,28.60
2014,07,15,16,42,28.70
2014,07,15,16,43,28.70
2014,07,15,16,44,28.70
2014,07,15,16,45,28.70
2014,07,15,16,46,28.80
2014,07,15,16,47,28.80
2014,07,15,16,48,28.80
2014,07,15,16,49,28.80
2014,07,15,16,50,28.80
2014,07,15,16,51,28.80
2014,07,15,16,52,28.80
2014,07,15,16,53,28.80
2014,07,15,16,54,28.80
2014,07,15,16,55,28.80
2014,07,15,16,56,28.80
2014,07,15,16,57,28.80
2014,07,15,16,58,28.80
2014,07,15,16,59,28.70
2014,07,15,17,00,28.70
2014,07,15,17,01,28.70
2014,07,15,17,02,28.60
2014,07,15,17,03,28.50
2014,07,15,17,04,28.50
2014,07,15,17,05,28.50
2014,07,15,17,06,28.40
2014,07,15,17,07,28.40
2014,07,15,17,08,28.40
2014,07,15,17,09,28.40
2014,07,15,17,10,28.50
2014,07,15,17,11,28.60
2014,07,15,17,12,28.60
2014,07,15,17,13,28.60
2014,07,15,17,14,28.60
2014,07,15,17,15,28.70
2014,07,15,17,16,28.70
2014,07,15,17,17,28.70
2014,07,15,17,18,28.70
2014,07,15,17,19,28.70